Weather History for Coeur d'Alene, ID

Change the Weather History Date:

Monday, May 20, 2013

  Actual Average Record
Temperature  
Mean Temperature 55 °F -  
Max Temperature 71 °F 63 °F 77 °F (1998)
Min Temperature 39 °F 41 °F 35 °F (2003)
Degree Days  
Heating Degree Days 10    
Growing Degree Days 5 (Base 50)    
Moisture  
Dew Point 43 °F    
Average Humidity 61    
Maximum Humidity 87    
Minimum Humidity 35    
Precipitation  
Precipitation 0.00 in - - ()
Sea Level Pressure  
Sea Level Pressure 30.14 in    
Wind  
Wind Speed 3 mph (ENE)    
Max Wind Speed 9 mph    
Max Gust Speed 16 mph    
Visibility 10 miles    
Events      
Averages and records for this station are not official NWS values.
T = Trace of Precipitation, MM = Missing Value Source: NWS Daily Summary

Daily Weather History Graph

Daily Weather History Graph

Search for Another Location

Airport:

Trip Planner

Search our weather history database for the weather conditions in past years. The results will help you decide how hot, cold, wet, or windy it might be!

Date:

Astronomy

May. 20, 2013 Rise Set
Actual Time 5:03 AM PDT 8:25 PM PDT
Civil Twilight 4:25 AM PDT 9:03 PM PDT
Nautical Twilight 3:35 AM PDT 9:53 PM PDT
Astronomical Twilight 2:31 AM PDT 10:58 PM PDT
Moon 3:18 PM PDT (5/20) 2:22 AM PDT (5/20)
Length of Visible Light 16h 37m
Length of Day
15h 22m
Waxing Gibbous, 76% of the Moon is Illuminated
May 20
Waxing Gibbous
May 24
Full
May 31
Last Quarter
Jun 8
New
Jun 16
First Quarter

Hourly Weather History & Observations

Time (PDT) Temp. Windchill Dew Point Humidity Pressure Visibility Wind Dir Wind Speed Gust Speed Precip Events Conditions
12:15 AM 46.4 °F - 42.8 °F 87% 30.26 in 10.0 mi Calm Calm - N/A   Scattered Clouds
12:35 AM 46.4 °F - 42.8 °F 87% 30.26 in 10.0 mi Calm Calm - N/A   Clear
1:15 AM 46.4 °F - 39.2 °F 76% 30.25 in 10.0 mi Calm Calm - N/A   Clear
1:35 AM 48.2 °F - 44.6 °F 87% 30.25 in 10.0 mi Calm Calm - N/A   Clear
1:55 AM 46.4 °F 45.2 °F 42.8 °F 87% 30.25 in 10.0 mi East 3.5 mph - N/A   Clear
2:15 AM 42.8 °F 40.1 °F 39.2 °F 87% 30.25 in 10.0 mi NE 4.6 mph - N/A   Clear
2:35 AM 42.8 °F 40.1 °F 39.2 °F 87% 30.25 in 10.0 mi ENE 4.6 mph - N/A   Clear
2:55 AM 42.8 °F - 37.4 °F 81% 30.25 in 10.0 mi Calm Calm - N/A   Clear
3:15 AM 41.0 °F - 37.4 °F 87% 30.26 in 10.0 mi Calm Calm - N/A   Clear
3:35 AM 41.0 °F 38.0 °F 37.4 °F 87% 30.26 in 10.0 mi NE 4.6 mph - N/A   Clear
3:55 AM 41.0 °F 38.0 °F 37.4 °F 87% 30.26 in 10.0 mi NE 4.6 mph - N/A   Clear
4:15 AM 41.0 °F 38.0 °F 35.6 °F 81% 30.26 in 10.0 mi ENE 4.6 mph - N/A   Clear
4:35 AM 42.8 °F - 39.2 °F 87% 30.27 in 10.0 mi Calm Calm - N/A   Clear
5:15 AM 41.0 °F 39.0 °F 37.4 °F 87% 30.27 in 10.0 mi ENE 3.5 mph - N/A   Clear
5:35 AM 39.2 °F - 35.6 °F 87% 30.27 in 7.0 mi Calm Calm - N/A   Clear
5:55 AM 39.2 °F 35.9 °F 35.6 °F 87% 30.28 in 7.0 mi ENE 4.6 mph - N/A   Mostly Cloudy
6:15 AM 42.8 °F - 39.2 °F 87% 30.28 in 10.0 mi Calm Calm - N/A   Scattered Clouds
6:35 AM 46.4 °F - 41.0 °F 81% 30.28 in 10.0 mi Calm Calm - N/A   Clear
6:55 AM 46.4 °F - 42.8 °F 87% 30.28 in 10.0 mi Calm Calm - N/A   Clear
7:15 AM 48.2 °F - 44.6 °F 87% 30.28 in 10.0 mi ENE 4.6 mph - N/A   Clear
7:35 AM 51.8 °F - 46.4 °F 82% 30.28 in 10.0 mi ENE 3.5 mph - N/A   Clear
7:55 AM 53.6 °F - 48.2 °F 82% 30.28 in 10.0 mi East 3.5 mph - N/A   Clear
8:35 AM 55.4 °F - 46.4 °F 72% 30.26 in 10.0 mi SE 4.6 mph - N/A   Clear
8:55 AM 57.2 °F - 44.6 °F 63% 30.26 in 10.0 mi SSE 8.1 mph - N/A   Clear
9:15 AM 57.2 °F - 44.6 °F 63% 30.25 in 10.0 mi SSE 6.9 mph - N/A   Clear
9:35 AM 59.0 °F - 44.6 °F 59% 30.25 in 10.0 mi South 6.9 mph - N/A   Clear
9:55 AM 60.8 °F - 42.8 °F 52% 30.24 in 10.0 mi SSE 9.2 mph - N/A   Clear
10:15 AM 60.8 °F - 46.4 °F 59% 30.23 in 10.0 mi SSE 8.1 mph - N/A   Clear
10:35 AM 62.6 °F - 44.6 °F 52% 30.22 in 10.0 mi SSE 5.8 mph - N/A   Clear
11:15 AM 64.4 °F - 44.6 °F 49% 30.21 in 10.0 mi SW 4.6 mph - N/A   Clear
11:55 AM 66.2 °F - 44.6 °F 46% 30.19 in 10.0 mi West 4.6 mph - N/A   Clear
12:15 PM 68.0 °F - 44.6 °F 43% 30.18 in 10.0 mi SW 8.1 mph - N/A   Clear
12:35 PM 66.2 °F - 42.8 °F 43% 30.18 in 10.0 mi Calm Calm - N/A   Clear
12:55 PM 69.8 °F - 44.6 °F 40% 30.16 in 10.0 mi WNW 5.8 mph - N/A   Clear
1:15 PM 69.8 °F - 42.8 °F 38% 30.16 in 10.0 mi WNW 4.6 mph - N/A   Clear
1:35 PM 69.8 °F - 44.6 °F 40% 30.15 in 10.0 mi West 5.8 mph - N/A   Clear
1:55 PM 69.8 °F - 44.6 °F 40% 30.14 in 10.0 mi WNW 3.5 mph 16.1 mph N/A   Clear
2:15 PM 71.6 °F - 44.6 °F 38% 30.13 in 10.0 mi WSW 8.1 mph - N/A   Partly Cloudy
2:35 PM 69.8 °F - 44.6 °F 40% 30.12 in 10.0 mi Calm Calm - N/A   Clear
2:55 PM 71.6 °F - 46.4 °F 41% 30.12 in 10.0 mi West 5.8 mph - N/A   Scattered Clouds
3:15 PM 71.6 °F - 44.6 °F 38% 30.10 in 10.0 mi SW 8.1 mph - N/A   Partly Cloudy
3:35 PM 71.6 °F - 44.6 °F 38% 30.10 in 10.0 mi SW 4.6 mph - N/A   Clear
3:55 PM 71.6 °F - 44.6 °F 38% 30.08 in 10.0 mi WSW 6.9 mph - N/A   Clear
4:15 PM 71.6 °F - 44.6 °F 38% 30.07 in 10.0 mi WNW 8.1 mph - N/A   Clear
4:35 PM 71.6 °F - 42.8 °F 35% 30.06 in 10.0 mi NW 5.8 mph - N/A   Clear
4:55 PM 69.8 °F - 42.8 °F 38% 30.05 in 10.0 mi NW 5.8 mph - N/A   Clear
5:15 PM 71.6 °F - 44.6 °F 38% 30.04 in 10.0 mi West 4.6 mph - N/A   Clear
5:35 PM 71.6 °F - 42.8 °F 35% 30.03 in 10.0 mi NW 4.6 mph - N/A   Clear
5:55 PM 71.6 °F - 42.8 °F 35% 30.02 in 10.0 mi NNW 3.5 mph - N/A   Clear
6:15 PM 69.8 °F - 42.8 °F 38% 30.01 in 10.0 mi Calm Calm - N/A   Clear
6:35 PM 69.8 °F - 42.8 °F 38% 30.00 in 10.0 mi North 3.5 mph - N/A   Clear
7:15 PM 68.0 °F - 42.8 °F 40% 29.98 in 10.0 mi Calm Calm - N/A   Clear
7:35 PM 68.0 °F - 42.8 °F 40% 29.98 in 10.0 mi Calm Calm - N/A   Clear
7:55 PM 64.4 °F - 44.6 °F 49% 29.97 in 10.0 mi North 3.5 mph - N/A   Clear
8:15 PM 62.6 °F - 44.6 °F 52% 29.97 in 10.0 mi North 5.8 mph - N/A   Clear
8:35 PM 62.6 °F - 46.4 °F 55% 29.96 in 10.0 mi NE 4.6 mph - N/A   Clear
8:55 PM 60.8 °F - 44.6 °F 55% 29.96 in 10.0 mi ENE 5.8 mph - N/A   Clear
9:15 PM 60.8 °F - 44.6 °F 55% 29.96 in 10.0 mi East 4.6 mph - N/A   Clear
9:35 PM 60.8 °F - 46.4 °F 59% 29.95 in 10.0 mi Calm Calm - N/A   Clear
9:55 PM 57.2 °F - 46.4 °F 67% 29.94 in 10.0 mi East 3.5 mph - N/A   Clear
10:15 PM 57.2 °F - 46.4 °F 67% 29.94 in 10.0 mi ENE 3.5 mph - N/A   Clear
10:35 PM 57.2 °F - 46.4 °F 67% 29.93 in 10.0 mi Calm Calm - N/A   Clear
10:55 PM 57.2 °F - 46.4 °F 67% 29.93 in 10.0 mi Calm Calm - N/A   Clear
11:15 PM 55.4 °F - 48.2 °F 77% 29.93 in 10.0 mi SSE 4.6 mph - N/A   Clear
11:35 PM 57.2 °F - 46.4 °F 67% 29.92 in 10.0 mi SE 6.9 mph - N/A   Clear
11:55 PM 55.4 °F - 46.4 °F 72% 29.92 in 10.0 mi SE 4.6 mph - N/A   Clear